Location: Ago
(8.4667°N, 4.4833°E)
Time: 23:55:26
(UTC+00:00)

DMSP B5D2-2 - Pass Details

Date: 18 September 2020
Orbit: 790 x 805 km, 98.3° (Epoch: 20 October)

Event Time Altitude Azimuth Distance (km) Brightness Sun altitude
Rises 18:50:14 0° 21° (NNE) 3,306 7.1 -18.1°
Reaches altitude 10° 18:52:38 10° 26° (NNE) 2,375 6.3 -18.7°
Maximum altitude 18:57:43 51° 102° (ESE) 995 4.1 -20.0°
Drops below altitude 10° 19:02:48 10° 177° (S) 2,370 6.5 -21.2°
Sets 19:05:11 0° 182° (S) 3,299 7.3 -21.8°
